SCP
0 0 0 1 1 1 0 1 0 0 0 0 0 0 0 0 0 0 -0 0 0 0 0 0 0 0 0 0 0 0 0 0
0 0 0 1 1 1 1 1 1 1 0 0 0 0 0 0 0 0 -0 0 0 0 0 0 0 0 0 0 0 0 0 0
0 0 0 1 2 2 2 1 0 1 1 0 0 0 0 0 0 0 -0 0 0 0 -0 0 0 0 0 0 0 0 0 0
0 0 0 1 3 4 3 2 1 2 1 0 0 0 0 0 0 0 0 -0 0 0 0 0 0 0 0 1 1 1 0 1
0 0 0 1 5 6 4 2 2 3 3 1 1 1 0 0 0 0 0 0 0 0 0 0 0 0 1 1 2 1 2 3
0 0 0 0 2 13 5 5 5 5 6 2 1 1 0 0 1 1 0 0 0 -0 -0 0 0 1 2 2 4 4 3 3
0 0 0 0 2 13 9 9 6 5 8 3 2 1 0 0 1 1 0 0 0 0 -0 1 1 3 3 4 4 4 3 1
0 0 0 0 3 9 11 10 9 6 7 3 1 1 1 2 1 1 1 0 0 -0 1 4 4 2 2 2 3 1 0 0
0 0 0 0 0 6 6 7 8 7 6 2 2 2 2 2 2 1 1 0 0 0 1 3 3 3 2 1 1 1 0 0
0 0 0 0 1 9 8 3 6 6 5 2 3 1 2 2 2 1 0 1 1 1 1 3 2 1 1 0 0 0 0 0
0 0 0 0 0 10 10 7 5 5 3 2 4 2 3 3 2 1 1 1 1 1 3 2 2 1 0 0 0 0 0 0
0 0 0 0 0 12 11 9 6 7 2 3 5 3 2 2 1 1 1 2 1 1 1 1 0 0 0 0 0 0 0 0
0 0 0 0 8 14 11 7 7 4 4 4 4 3 3 2 2 3 1 0 0 0 1 0 0 0 0 0 0 0 0 0
0 0 0 0 12 9 9 7 8 9 7 6 3 3 4 4 2 2 1 0 0 0 0 0 0 0 0 0 0 0 0 0
0 0 0 1 10 6 6 6 6 5 6 5 6 4 1 3 2 2 1 1 0 1 0 0 0 0 0 0 0 0 0 0
0 0 0 7 10 5 4 4 5 3 4 3 4 3 4 4 1 1 1 0 0 0 0 0 0 0 0 0 0 0 0 0
0 0 0 9 7 5 4 2 4 3 5 5 3 2 2 2 1 1 0 0 0 0 0 0 0 0 0 0 0 0 0 0
0 0 0 11 6 6 4 3 3 4 4 3 3 2 1 1 0 0 0 0 0 0 0 0 0 0 0 0 0 0 0 0
0 0 2 11 7 5 3 3 3 4 4 4 2 1 0 0 0 0 0 0 0 0 0 0 0 0 0 0 0 0 0 0
0 0 6 8 7 5 4 2 3 4 4 2 1 0 0 0 0 0 0 0 0 0 0 0 0 0 0 0 0 0 0 0
Wind_Speed_500mb
34 36 40 52 55 48 48 45 52 46 42 44 47 40 35 29 26 23 26 17 14 21 11 15 14 10 11 2 15 10 10 16
40 40 45 50 54 56 57 46 46 50 50 35 45 41 36 30 26 28 33 26 20 20 13 14 12 5 11 5 14 9 9 24
49 41 41 56 61 64 67 54 49 57 48 37 40 38 36 29 28 29 32 33 24 26 22 14 11 7 8 7 8 14 22 12
50 42 48 37 63 72 77 65 54 60 48 31 39 27 25 30 20 28 29 29 25 24 23 29 16 15 15 13 14 14 14 18
42 48 36 30 52 62 107 72 59 69 44 35 46 41 31 38 28 23 31 29 28 22 19 15 13 11 23 25 24 19 15 24
42 24 37 38 26 64 43 63 65 62 50 50 47 41 34 38 33 30 37 34 23 32 14 12 14 20 18 13 26 28 22 19
60 39 37 47 36 66 73 68 63 63 64 53 46 38 39 34 38 25 33 32 23 30 23 20 27 29 31 34 35 33 33 33
72 64 48 47 37 56 74 71 66 64 68 53 47 44 41 39 35 29 25 29 28 30 25 30 35 38 36 39 37 37 34 42
64 70 62 50 46 47 60 66 67 66 73 64 52 52 43 40 40 37 26 28 27 33 28 34 35 32 34 33 32 36 38 25
75 71 79 79 60 59 67 60 68 67 78 68 52 50 49 45 45 41 30 26 25 21 21 23 23 21 21 29 35 32 35 35
74 85 69 74 79 57 69 69 67 63 78 66 56 48 50 51 48 40 40 33 17 12 28 27 14 9 22 20 19 17 10 12
74 81 64 77 79 76 73 69 63 71 76 55 58 58 59 53 42 35 25 23 29 28 22 8 12 7 4 13 12 12 19 18
61 83 73 73 82 83 78 74 65 78 72 56 54 57 55 47 45 44 43 33 24 18 7 10 12 9 13 12 9 9 11 16
56 57 77 81 85 84 79 84 79 93 82 78 54 50 58 64 50 45 37 31 21 16 20 20 18 13 12 9 9 12 17 21
65 60 67 78 82 80 76 84 85 99 77 64 75 49 57 56 41 44 38 32 27 25 24 16 12 16 8 9 16 22 22 27
76 69 66 85 81 80 83 91 94 90 78 84 78 81 76 54 48 46 39 40 34 28 22 20 19 10 8 11 14 17 22 23
95 79 70 92 91 89 94 97 95 94 89 96 83 69 60 60 62 50 47 40 36 30 27 17 12 8 9 11 14 18 20 18
97 86 74 107 93 94 92 97 99 99 97 92 75 72 69 67 61 46 46 42 35 34 20 14 7 7 8 11 13 19 21 23
90 82 74 103 95 93 105 100 102 96 88 86 88 77 65 52 55 51 46 39 36 28 17 10 8 10 14 17 19 17 20 22
80 75 85 100 94 105 113 107 100 96 91 93 81 76 61 60 57 51 44 44 36 26 18 15 16 19 18 19 20 21 22 23
Wind_Direction_500mb
187 181 182 178 173 171 176 186 178 170 198 187 191 189 190 187 189 178 158 175 167 197 254 273 265 267 317 287 0 7 26 11
188 205 188 181 176 174 182 184 174 166 195 196 189 188 189 188 190 175 148 181 210 181 254 322 336 349 353 346 331 320 314 270
233 208 209 185 181 176 184 182 172 172 192 202 195 191 189 184 193 177 166 179 207 193 190 199 263 214 310 300 253 240 289 318
220 198 225 205 185 179 183 180 170 169 188 187 179 183 177 172 198 183 177 177 217 206 190 202 197 215 203 253 268 260 288 310
250 202 215 214 184 190 174 171 172 170 184 178 179 180 179 175 190 204 184 169 218 182 202 203 202 225 216 222 227 260 252 245
250 216 196 219 191 179 181 177 178 187 178 173 177 185 183 173 190 209 184 182 209 183 175 207 194 224 255 251 244 229 242 243
254 251 224 201 221 184 183 186 191 195 181 183 175 190 176 175 186 208 182 187 201 171 172 224 214 209 224 236 241 238 243 250
239 244 232 208 211 194 192 194 203 197 187 179 176 182 174 177 180 205 200 187 194 178 182 214 216 227 233 248 258 263 262 261
233 229 231 212 206 194 191 195 197 194 187 178 181 182 172 175 184 199 205 191 196 186 194 237 237 243 249 259 271 274 267 284
231 236 217 205 203 205 206 197 194 199 186 175 180 175 175 171 190 199 202 192 203 196 185 249 261 272 268 268 271 284 293 296
216 229 204 197 198 197 203 198 194 196 186 176 180 174 170 178 194 196 182 192 188 174 195 214 258 212 283 312 324 343 353 357
208 221 215 193 197 200 196 194 190 191 182 180 177 173 170 186 194 176 175 174 182 197 201 221 265 262 62 61 60 41 358 12
221 204 212 204 185 190 191 197 195 188 179 177 175 173 174 179 169 171 179 179 190 180 190 179 146 113 95 99 91 5 356 353
231 210 204 186 178 188 189 192 190 179 173 166 163 183 181 179 175 178 172 180 162 143 141 118 99 112 106 79 4 350 349 341
229 227 193 176 170 181 183 191 190 178 183 180 175 182 197 184 179 177 166 157 143 147 142 140 127 125 98 33 13 346 349 344
228 225 201 177 175 184 186 188 182 181 173 173 174 176 189 174 169 181 166 161 158 149 133 122 111 105 60 3 353 344 349 356
222 222 202 170 181 186 192 183 182 174 170 177 180 179 162 160 179 174 159 158 145 138 130 125 108 68 17 3 355 356 360 14
212 211 196 169 183 186 183 181 176 173 176 177 159 165 166 170 173 158 157 141 136 142 133 119 87 56 35 15 5 21 20 18
204 198 184 170 177 178 178 178 172 169 168 156 166 159 163 168 170 155 141 134 137 137 132 108 92 74 54 54 31 32 26 25
182 183 162 165 171 171 172 173 165 162 153 165 157 157 160 173 159 142 136 134 133 131 120 102 79 64 64 50 45 35 33 37
Wind_Speed_850mb
34 36 40 52 55 48 48 45 52 46 42 44 47 40 35 29 26 23 26 17 14 21 11 15 14 10 11 2 15 10 10 16
40 40 45 50 54 56 57 46 46 50 50 35 45 41 36 30 26 28 33 26 20 20 13 14 12 5 11 5 14 9 9 24
49 41 41 56 61 64 67 54 49 57 48 37 40 38 36 29 28 29 32 33 24 26 22 14 11 7 8 7 8 14 22 12
50 42 48 37 63 72 77 65 54 60 48 31 39 27 25 30 20 28 29 29 25 24 23 29 16 15 15 13 14 14 14 18
42 48 36 30 52 62 107 72 59 69 44 35 46 41 31 38 28 23 31 29 28 22 19 15 13 11 23 25 24 19 15 24
42 24 37 38 26 64 43 63 65 62 50 50 47 41 34 38 33 30 37 34 23 32 14 12 14 20 18 13 26 28 22 19
60 39 37 47 36 66 73 68 63 63 64 53 46 38 39 34 38 25 33 32 23 30 23 20 27 29 31 34 35 33 33 33
72 64 48 47 37 56 74 71 66 64 68 53 47 44 41 39 35 29 25 29 28 30 25 30 35 38 36 39 37 37 34 42
64 70 62 50 46 47 60 66 67 66 73 64 52 52 43 40 40 37 26 28 27 33 28 34 35 32 34 33 32 36 38 25
75 71 79 79 60 59 67 60 68 67 78 68 52 50 49 45 45 41 30 26 25 21 21 23 23 21 21 29 35 32 35 35
74 85 69 74 79 57 69 69 67 63 78 66 56 48 50 51 48 40 40 33 17 12 28 27 14 9 22 20 19 17 10 12
74 81 64 77 79 76 73 69 63 71 76 55 58 58 59 53 42 35 25 23 29 28 22 8 12 7 4 13 12 12 19 18
61 83 73 73 82 83 78 74 65 78 72 56 54 57 55 47 45 44 43 33 24 18 7 10 12 9 13 12 9 9 11 16
56 57 77 81 85 84 79 84 79 93 82 78 54 50 58 64 50 45 37 31 21 16 20 20 18 13 12 9 9 12 17 21
65 60 67 78 82 80 76 84 85 99 77 64 75 49 57 56 41 44 38 32 27 25 24 16 12 16 8 9 16 22 22 27
76 69 66 85 81 80 83 91 94 90 78 84 78 81 76 54 48 46 39 40 34 28 22 20 19 10 8 11 14 17 22 23
95 79 70 92 91 89 94 97 95 94 89 96 83 69 60 60 62 50 47 40 36 30 27 17 12 8 9 11 14 18 20 18
97 86 74 107 93 94 92 97 99 99 97 92 75 72 69 67 61 46 46 42 35 34 20 14 7 7 8 11 13 19 21 23
90 82 74 103 95 93 105 100 102 96 88 86 88 77 65 52 55 51 46 39 36 28 17 10 8 10 14 17 19 17 20 22
80 75 85 100 94 105 113 107 100 96 91 93 81 76 61 60 57 51 44 44 36 26 18 15 16 19 18 19 20 21 22 23
Wind_Direction_850mb
187 181 182 178 173 171 176 186 178 170 198 187 191 189 190 187 189 178 158 175 167 197 254 273 265 267 317 287 0 7 26 11
188 205 188 181 176 174 182 184 174 166 195 196 189 188 189 188 190 175 148 181 210 181 254 322 336 349 353 346 331 320 314 270
233 208 209 185 181 176 184 182 172 172 192 202 195 191 189 184 193 177 166 179 207 193 190 199 263 214 310 300 253 240 289 318
220 198 225 205 185 179 183 180 170 169 188 187 179 183 177 172 198 183 177 177 217 206 190 202 197 215 203 253 268 260 288 310
250 202 215 214 184 190 174 171 172 170 184 178 179 180 179 175 190 204 184 169 218 182 202 203 202 225 216 222 227 260 252 245
250 216 196 219 191 179 181 177 178 187 178 173 177 185 183 173 190 209 184 182 209 183 175 207 194 224 255 251 244 229 242 243
254 251 224 201 221 184 183 186 191 195 181 183 175 190 176 175 186 208 182 187 201 171 172 224 214 209 224 236 241 238 243 250
239 244 232 208 211 194 192 194 203 197 187 179 176 182 174 177 180 205 200 187 194 178 182 214 216 227 233 248 258 263 262 261
233 229 231 212 206 194 191 195 197 194 187 178 181 182 172 175 184 199 205 191 196 186 194 237 237 243 249 259 271 274 267 284
231 236 217 205 203 205 206 197 194 199 186 175 180 175 175 171 190 199 202 192 203 196 185 249 261 272 268 268 271 284 293 296
216 229 204 197 198 197 203 198 194 196 186 176 180 174 170 178 194 196 182 192 188 174 195 214 258 212 283 312 324 343 353 357
208 221 215 193 197 200 196 194 190 191 182 180 177 173 170 186 194 176 175 174 182 197 201 221 265 262 62 61 60 41 358 12
221 204 212 204 185 190 191 197 195 188 179 177 175 173 174 179 169 171 179 179 190 180 190 179 146 113 95 99 91 5 356 353
231 210 204 186 178 188 189 192 190 179 173 166 163 183 181 179 175 178 172 180 162 143 141 118 99 112 106 79 4 350 349 341
229 227 193 176 170 181 183 191 190 178 183 180 175 182 197 184 179 177 166 157 143 147 142 140 127 125 98 33 13 346 349 344
228 225 201 177 175 184 186 188 182 181 173 173 174 176 189 174 169 181 166 161 158 149 133 122 111 105 60 3 353 344 349 356
222 222 202 170 181 186 192 183 182 174 170 177 180 179 162 160 179 174 159 158 145 138 130 125 108 68 17 3 355 356 360 14
212 211 196 169 183 186 183 181 176 173 176 177 159 165 166 170 173 158 157 141 136 142 133 119 87 56 35 15 5 21 20 18
204 198 184 170 177 178 178 178 172 169 168 156 166 159 163 168 170 155 141 134 137 137 132 108 92 74 54 54 31 32 26 25
182 183 162 165 171 171 172 173 165 162 153 165 157 157 160 173 159 142 136 134 133 131 120 102 79 64 64 50 45 35 33 37